EW1970 Weather Reports


Display with metric or nautical units.
time (UTC)temp
F
wind
direction
speed
MPH
gust
MPH
rain 1hr
in
rain 24hr
in
rain mn
in
humidity
%
barometer
mb
20260510013014 79 123 0.0 2.0 0.00 0.00 0.00 68 1009.6
20260510011512 80 130 0.0 3.0 0.00 0.00 0.00 68 1009.6
20260510010008 80 148 0.0 2.0 0.00 0.00 0.00 67 1009.5
20260510004513 81 151 0.0 2.0 0.00 0.00 0.00 66 1009.4
20260510003021 81 106 0.0 3.0 0.00 0.00 0.00 66 1009.3
20260510001514 82 81 1.0 5.0 0.00 0.00 0.00 67 1009.1
20260510000017 83 62 0.0 4.0 0.00 0.00 0.00 65 1009.0
20260509234515 84 170 0.0 4.0 0.00 0.00 0.00 66 1008.8
20260509233023 85 352 0.0 4.0 0.00 0.00 0.00 62 1008.8
20260509231516 85 24 0.0 3.0 0.00 0.00 0.00 63 1008.7
20260509230018 86 103 1.0 3.0 0.00 0.00 0.00 60 1008.8
20260509224517 86 128 1.0 4.0 0.00 0.00 0.00 59 1008.8
20260509223003 87 125 1.0 4.0 0.00 0.00 0.00 58 1008.7
20260509221503 87 63 1.0 7.0 0.00 0.00 0.00 57 1008.7
20260509220006 88 103 0.0 4.0 0.00 0.00 0.00 58 1008.7
20260509214509 88 96 0.0 3.0 0.00 0.00 0.00 56 1008.9
20260509213004 88 72 0.0 2.0 0.00 0.00 0.00 53 1009.1
20260509211504 88 125 0.0 2.0 0.00 0.00 0.00 55 1009.2
20260509210008 88 111 0.0 5.0 0.00 0.00 0.00 57 1009.5
20260509204507 87 117 0.0 3.0 0.00 0.00 0.00 60 1009.7
20260509203022 86 20 0.0 6.0 0.00 0.00 0.00 52 1009.9
20260509201502 85 20 1.0 10.0 0.00 0.00 0.00 54 1010.3
20260509200004 83 113 4.0 15.0 0.00 0.00 0.00 53 1010.8
20260509194505 82 59 0.0 9.0 0.00 0.00 0.00 57 1010.9
20260509193010 87 321 1.0 9.0 0.00 0.00 0.00 64 1010.6
20260509191512 87 290 2.0 8.0 0.00 0.00 0.00 63 1010.3
20260509190005 85 257 1.0 10.0 0.00 0.00 0.00 68 1010.5
20260509184511 86 16 2.0 6.0 0.00 0.00 0.00 66 1010.8
20260509183013 84 53 0.0 8.0 0.00 0.00 0.00 66 1011.1
20260509181513 87 317 1.0 6.0 0.00 0.00 0.00 65 1011.2
20260509180020 86 288 1.0 5.0 0.00 0.00 0.00 71 1011.5
20260509174504 84 234 0.0 4.0 0.00 0.00 0.00 72 1011.5
20260509173003 82 293 1.0 3.0 0.00 0.00 0.00 73 1011.6
20260509171509 83 219 2.0 6.0 0.00 0.00 0.00 74 1012.1
20260509170016 83 296 2.0 7.0 0.00 0.00 0.00 72 1012.3
20260509164519 83 302 2.0 5.0 0.00 0.00 0.00 74 1012.1
20260509163007 81 274 2.0 5.0 0.00 0.00 0.00 80 1012.2
20260509161509 81 310 2.0 5.0 0.00 0.00 0.00 76 1012.2
20260509160012 79 271 3.0 8.0 0.00 0.00 0.00 81 1011.9
20260509154522 79 252 1.0 5.0 0.00 0.00 0.00 84 1011.9
20260509153023 79 102 2.0 7.0 0.00 0.00 0.00 84 1011.8
20260509151507 78 234 2.0 9.0 0.00 0.00 0.00 85 1011.2
20260509150013 77 258 2.0 8.0 0.00 0.00 0.00 86 1011.3
20260509144524 77 117 0.0 5.0 0.00 0.00 0.00 87 1011.2
20260509143021 76 252 0.0 3.0 0.00 0.00 0.00 88 1011.2
20260509141528 75 178 1.0 3.0 0.00 0.00 0.00 90 1011.0
20260509140008 74 269 0.0 3.0 0.00 0.00 0.00 92 1010.7
20260509134518 73 121 1.0 4.0 0.00 0.00 0.00 93 1010.6
20260509133008 72 250 1.0 4.0 0.00 0.00 0.00 93 1010.9
20260509131505 71 111 0.0 3.0 0.00 0.00 0.00 93 1010.9
20260509130009 71 161 0.0 2.0 0.00 0.00 0.00 93 1011.2
20260509124529 71 287 0.0 2.0 0.00 0.00 0.00 93 1011.4
20260509123007 71 270 0.0 3.0 0.00 0.00 0.00 93 1011.1
20260509121506 71 352 0.0 2.0 0.00 0.00 0.00 93 1011.0
20260509120010 71 352 0.0 2.0 0.00 0.00 0.00 93 1011.1
20260509114512 71 352 0.0 1.0 0.00 0.00 0.00 93 1011.0
20260509113017 71 352 0.0 2.0 0.00 0.00 0.00 93 1012.0
20260509111505 71 49 0.0 2.0 0.00 0.00 0.00 93 1012.2
20260509110007 71 288 0.0 2.0 0.00 0.00 0.00 93 1012.4
20260509104510 71 340 0.0 2.0 0.00 0.00 0.00 93 1012.3
20260509103017 71 360 0.0 2.0 0.00 0.00 0.00 93 1012.4
20260509101520 71 298 0.0 1.0 0.00 0.00 0.00 93 1012.3
20260509100005 71 102 0.0 0.0 0.00 0.00 0.00 93 1011.8
20260509094508 71 102 0.0 0.0 0.00 0.00 0.00 93 1011.3
20260509093012 71 102 0.0 0.0 0.00 0.00 0.00 93 1010.9
20260509091519 71 102 0.0 0.0 0.00 0.00 0.00 93 1010.9
20260509090022 71 102 0.0 0.0 0.00 0.00 0.00 92 1010.8
20260509084507 71 102 0.0 1.0 0.00 0.00 0.00 92 1011.0
20260509083020 72 102 0.0 0.0 0.00 0.00 0.00 92 1011.3
20260509081518 71 102 0.0 0.0 0.00 0.00 0.00 92 1011.2
20260509080033 72 102 0.0 0.0 0.00 0.00 0.00 92 1011.3
20260509074526 72 102 0.0 1.0 0.00 0.00 0.00 91 1011.5
20260509073010 72 146 0.0 0.0 0.00 0.00 0.00 91 1011.6
20260509071513 72 146 0.0 2.0 0.00 0.00 0.00 91 1011.8
20260509070019 72 275 0.0 2.0 0.00 0.00 0.00 91 1011.8
20260509064526 72 197 0.0 3.0 0.00 0.00 0.00 90 1011.4
20260509063027 73 122 0.0 6.0 0.00 0.00 0.00 90 1011.6
20260509061530 73 132 0.0 2.0 0.00 0.00 0.00 90 1011.2
20260509060017 73 108 0.0 4.0 0.00 0.00 0.00 90 1011.0
20260509054523 73 118 1.0 6.0 0.00 0.00 0.00 90 1011.2
20260509053030 72 126 0.0 3.0 0.00 0.00 0.00 90 1010.4
20260509051527 72 263 1.0 4.0 0.00 0.00 0.00 89 1010.2
20260509050016 73 127 1.0 3.0 0.00 0.00 0.00 89 1010.1
20260509044519 73 103 0.0 4.0 0.00 0.00 0.00 88 1010.3
20260509043022 73 140 0.0 2.0 0.00 0.00 0.00 88 1010.5
20260509041529 73 133 0.0 2.0 0.00 0.00 0.00 88 1010.7
20260509040028 73 145 0.0 2.0 0.00 0.00 0.00 88 1010.8
20260509034518 73 145 0.0 2.0 0.00 0.00 0.00 89 1010.7
20260509033003 72 121 0.0 1.0 0.00 0.00 0.00 89 1010.4
20260509031504 72 134 0.0 2.0 0.00 0.00 0.00 88 1010.3
20260509030014 73 150 0.0 2.0 0.00 0.00 0.00 88 1010.1
20260509024514 73 83 0.0 0.0 0.00 0.00 0.00 88 1010.1
20260509023007 73 28 0.0 2.0 0.00 0.00 0.00 87 1010.0
20260509021506 73 126 0.0 6.0 0.00 0.00 0.00 86 1009.9
20260509020011 74 147 1.0 6.0 0.00 0.00 0.00 86 1009.5
20260509014513 74 107 0.0 7.0 0.00 0.00 0.00 85 1009.5